Location: Sungai Laei
(2.6000°N, 113.7167°E)
Time: 11:18:05
(UTC+00:00)

Meteor 1-20 Rocket - Pass Details

Date: 22 May 2022
Orbit: 819 x 892 km, 81.2° (Epoch: 07 July)

Event Time Altitude Azimuth Distance (km) Brightness Sun altitude
Rises 12:07:52 0° 355° (N) 3,369 7.7 -23.7°
Reaches altitude 10° 12:10:17 10° 356° (N) 2,428 6.9 -24.3°
Maximum altitude 12:15:46 87° 83° (E) 827 4.0 -25.5°
Enters shadow 12:16:47 61° 170° (S) 928 4.2 -25.7°
